Probability
0 0 0 0 0 0 0 0 0 0 0 0 0 0 0 0 0 0 0 0 0 0 0 0 3 3 3 3 6 6 3 3 0 0 0 0 0 0 0 0 0 0 0 0
0 0 0 0 0 0 0 0 0 0 0 0 0 0 0 0 0 0 0 0 0 0 3 3 3 3 3 3 6 6 6 6 0 0 0 0 0 0 0 0 0 0 0 0
0 0 0 0 0 0 0 0 0 0 0 0 0 0 0 0 0 0 0 0 0 3 3 3 3 3 3 3 6 6 6 6 3 0 0 0 0 0 0 0 0 0 0 0
0 0 0 0 0 0 0 0 0 0 0 0 0 0 0 0 0 0 0 0 0 3 3 0 0 0 3 3 6 6 6 6 3 0 0 0 0 0 0 0 0 0 0 0
0 0 0 0 0 0 0 0 0 0 0 0 0 0 0 0 0 0 0 0 0 0 0 0 0 0 0 0 3 6 6 6 6 0 0 0 0 0 0 0 0 0 0 0
0 0 0 0 0 0 0 0 0 0 0 0 0 0 0 0 0 0 0 0 0 0 0 0 0 0 0 0 0 3 6 6 6 3 0 0 0 0 0 0 0 0 0 0
0 0 0 0 0 0 0 0 0 0 0 0 0 0 0 0 0 0 0 0 0 0 0 0 0 0 0 0 0 0 3 3 3 3 0 0 0 0 0 0 0 0 0 0
0 0 0 0 0 0 0 0 0 0 0 0 0 0 0 0 0 0 0 0 0 0 0 0 0 0 0 0 0 0 3 3 3 0 0 0 0 0 0 0 0 0 0 0
0 0 0 0 0 0 0 0 0 0 0 0 0 0 0 0 0 0 0 0 0 0 0 0 0 0 0 0 0 0 3 3 3 0 0 0 0 0 0 0 0 0 0 0
0 0 0 0 0 0 0 0 0 0 0 0 0 0 0 0 0 0 0 0 0 0 0 0 0 0 0 0 0 0 3 3 3 3 0 0 0 0 0 0 0 0 0 0
0 0 0 0 0 0 0 0 0 0 0 0 0 0 0 0 0 0 0 0 0 0 0 0 0 0 0 0 0 0 3 3 3 3 0 0 0 0 0 0 0 0 0 0
0 0 0 0 0 0 0 0 0 0 0 0 0 0 0 0 0 0 0 0 0 0 0 0 0 0 0 0 0 0 0 3 3 3 0 0 0 0 0 0 0 0 0 0
0 0 0 0 0 0 0 0 0 0 0 0 0 0 0 0 0 0 0 0 0 0 0 0 0 0 0 0 0 0 0 0 0 0 0 0 0 0 0 0 0 0 0 0
0 0 0 0 0 0 0 0 0 0 0 0 0 0 0 0 0 0 0 0 0 0 0 0 0 0 0 0 0 0 0 0 0 0 0 0 0 0 0 0 0 0 0 0
0 0 0 0 0 0 0 0 0 0 0 0 0 0 0 0 0 0 0 0 0 0 0 0 0 0 0 0 0 0 0 0 0 0 0 0 0 0 0 0 0 0 0 0
0 0 0 0 0 0 0 0 0 0 0 0 0 0 0 0 0 0 0 0 0 0 0 0 0 3 0 0 0 0 0 0 0 0 3 0 0 0 0 0 0 0 0 0
0 0 0 0 0 0 0 0 0 0 0 0 0 0 0 0 0 0 0 0 0 0 0 0 0 0 0 0 0 0 0 3 0 0 0 0 0 0 0 0 0 0 0 0
0 0 0 0 0 0 0 0 0 0 0 0 0 0 0 0 0 0 0 0 0 0 0 0 0 0 0 0 0 0 0 3 3 3 0 0 0 0 0 0 0 0 0 0
0 0 0 0 0 0 0 0 0 0 0 0 0 0 0 0 0 0 0 0 0 0 0 0 0 0 0 0 0 0 0 3 3 3 0 0 0 0 0 0 0 0 0 0
0 0 0 0 0 0 0 0 0 0 0 0 0 0 0 0 0 0 0 0 0 0 0 0 0 0 0 0 0 0 0 3 3 3 0 0 0 0 0 0 0 0 0 0
0 0 0 0 0 0 0 0 0 0 0 0 0 0 0 0 0 0 0 0 0 0 0 0 0 0 0 0 3 3 3 3 3 0 0 0 0 0 0 0 0 0 0 0
0 0 0 0 0 0 0 0 0 0 0 0 0 0 0 0 0 0 0 0 0 0 0 0 0 0 0 0 3 3 3 3 3 0 0 0 0 0 0 0 0 0 0 0
0 0 0 0 0 0 0 0 0 0 0 0 0 0 0 0 0 0 0 0 0 0 0 0 0 0 0 0 3 3 3 3 0 0 0 0 0 0 0 0 0 0 0 0
0 0 0 0 0 0 0 0 0 0 0 0 0 0 0 0 0 0 0 0 0 0 0 0 0 0 0 3 3 3 0 0 0 0 0 0 0 0 0 0 0 0 0 0
0 0 0 0 0 0 0 0 0 0 0 0 0 0 0 0 0 0 0 0 0 0 0 3 3 0 3 3 3 0 0 0 0 0 0 0 0 0 0 0 0 0 0 0
0 0 0 0 0 0 0 0 0 0 0 0 0 0 0 0 0 0 0 0 0 0 0 0 0 0 0 0 0 0 0 0 0 0 0 0 0 0 0 0 0 0 0 0
Height
5855 5857 5857 5858 5858 5858 5859 5860 5860 5861 5861 5862 5862 5863 5863 5863 5863 5863 5864 5864 5864 5864 5865 5865 5865 5865 5866 5866 5866 5866 5867 5867 5867 5867 5867 5867 5867 5867 5866 5866 5866 5866 5866 5866
5854 5855 5855 5855 5856 5856 5857 5858 5858 5858 5859 5859 5859 5860 5861 5861 5861 5861 5862 5862 5862 5862 5862 5863 5863 5863 5863 5864 5864 5864 5864 5864 5865 5865 5865 5865 5865 5865 5864 5864 5864 5864 5864 5864
5851 5853 5852 5853 5853 5854 5854 5855 5856 5856 5856 5856 5857 5858 5858 5859 5859 5859 5859 5860 5860 5860 5860 5860 5861 5861 5861 5861 5862 5862 5862 5862 5862 5863 5863 5863 5863 5863 5863 5862 5862 5862 5862 5862
5848 5849 5850 5850 5851 5851 5852 5852 5853 5853 5853 5854 5855 5855 5856 5856 5856 5857 5857 5857 5857 5857 5858 5858 5858 5858 5859 5859 5859 5860 5860 5860 5860 5860 5860 5861 5861 5861 5861 5861 5860 5860 5860 5860
5845 5846 5847 5847 5848 5848 5849 5849 5850 5850 5850 5851 5851 5852 5854 5853 5854 5854 5854 5854 5854 5855 5855 5855 5856 5856 5856 5856 5857 5857 5857 5857 5858 5858 5858 5859 5859 5859 5859 5859 5858 5858 5858 5858
5842 5843 5843 5844 5845 5845 5846 5846 5846 5846 5847 5848 5849 5849 5850 5850 5851 5851 5852 5852 5852 5852 5853 5853 5853 5854 5854 5854 5854 5855 5855 5855 5855 5856 5856 5856 5856 5857 5857 5857 5856 5856 5856 5856
5838 5839 5840 5841 5841 5842 5842 5843 5843 5843 5843 5844 5845 5845 5847 5847 5847 5848 5848 5848 5849 5849 5850 5850 5850 5851 5851 5852 5852 5852 5852 5852 5853 5853 5853 5854 5854 5854 5855 5855 5854 5854 5854 5854
5834 5836 5836 5837 5837 5838 5839 5840 5840 5840 5840 5841 5841 5841 5844 5843 5843 5844 5844 5845 5845 5846 5846 5847 5847 5848 5848 5849 5849 5849 5849 5850 5850 5850 5851 5851 5852 5852 5852 5852 5852 5852 5852 5852
5830 5831 5832 5832 5833 5834 5834 5835 5836 5836 5836 5837 5838 5839 5839 5839 5839 5840 5841 5842 5842 5842 5843 5843 5844 5845 5845 5845 5846 5846 5846 5847 5847 5848 5848 5849 5849 5850 5850 5850 5850 5850 5850 5850
5825 5827 5827 5827 5828 5829 5830 5831 5831 5832 5832 5832 5834 5835 5836 5835 5835 5836 5837 5838 5838 5839 5839 5840 5840 5841 5842 5842 5843 5843 5843 5844 5845 5845 5845 5846 5846 5847 5847 5847 5848 5848 5847 5847
5821 5822 5823 5823 5824 5824 5825 5826 5826 5827 5827 5828 5829 5833 5832 5831 5832 5832 5833 5834 5835 5835 5836 5836 5837 5838 5838 5839 5839 5840 5840 5841 5842 5842 5843 5843 5844 5844 5844 5845 5845 5845 5845 5845
5817 5817 5818 5819 5820 5819 5820 5821 5822 5823 5823 5823 5824 5830 5827 5827 5827 5828 5829 5830 5830 5831 5832 5833 5833 5834 5834 5835 5836 5837 5837 5838 5838 5839 5839 5840 5841 5841 5842 5842 5842 5842 5842 5842
5812 5813 5814 5815 5817 5816 5815 5816 5816 5817 5817 5818 5819 5824 5823 5823 5823 5824 5825 5825 5826 5827 5828 5829 5829 5830 5831 5831 5832 5833 5834 5834 5835 5836 5836 5837 5837 5838 5838 5839 5839 5839 5839 5839
5807 5808 5809 5810 5810 5810 5810 5811 5811 5811 5812 5813 5814 5817 5818 5818 5819 5819 5820 5820 5821 5822 5823 5824 5825 5826 5827 5827 5828 5829 5830 5830 5831 5832 5833 5833 5834 5835 5835 5835 5836 5836 5836 5836
5802 5803 5803 5804 5804 5804 5805 5806 5806 5806 5806 5807 5809 5810 5812 5812 5813 5814 5814 5815 5815 5817 5818 5818 5819 5821 5822 5823 5824 5825 5825 5826 5827 5828 5829 5830 5830 5831 5832 5832 5832 5832 5832 5832
5796 5797 5798 5798 5798 5798 5799 5800 5800 5800 5800 5801 5802 5804 5805 5806 5807 5807 5808 5809 5810 5811 5812 5813 5814 5815 5816 5818 5819 5820 5821 5822 5822 5823 5824 5825 5826 5827 5827 5828 5828 5828 5828 5828
5791 5791 5792 5792 5792 5792 5793 5795 5794 5794 5794 5795 5795 5798 5798 5799 5800 5801 5802 5803 5804 5805 5806 5807 5808 5809 5811 5812 5813 5815 5816 5817 5818 5819 5820 5821 5822 5822 5823 5823 5824 5824 5824 5824
5785 5785 5785 5785 5786 5785 5790 5788 5788 5788 5788 5788 5789 5790 5792 5793 5793 5794 5795 5796 5797 5799 5800 5801 5802 5804 5805 5806 5807 5809 5810 5811 5813 5814 5815 5816 5817 5818 5818 5819 5819 5820 5820 5820
5779 5779 5779 5779 5778 5779 5782 5782 5781 5781 5782 5782 5783 5784 5785 5786 5786 5788 5789 5790 5792 5793 5794 5795 5796 5798 5799 5800 5801 5803 5804 5806 5807 5808 5809 5811 5812 5812 5813 5814 5814 5815 5815 5816
5772 5772 5773 5772 5772 5773 5777 5776 5774 5775 5776 5776 5776 5777 5778 5779 5781 5783 5783 5784 5785 5786 5788 5789 5790 5791 5793 5794 5795 5797 5798 5800 5801 5802 5804 5805 5806 5807 5808 5808 5809 5810 5810 5810
5765 5765 5765 5765 5765 5766 5769 5768 5768 5769 5771 5770 5769 5770 5771 5772 5775 5776 5776 5777 5779 5780 5781 5782 5784 5785 5786 5788 5789 5791 5792 5794 5795 5796 5797 5799 5800 5801 5802 5802 5803 5804 5804 5805
5757 5758 5758 5758 5758 5762 5761 5761 5761 5762 5762 5762 5763 5763 5764 5766 5767 5768 5769 5771 5772 5773 5774 5775 5777 5778 5780 5781 5782 5784 5786 5787 5789 5790 5791 5792 5793 5794 5795 5796 5797 5798 5799 5799
5750 5751 5751 5752 5754 5754 5754 5754 5754 5754 5754 5755 5756 5757 5758 5759 5759 5761 5762 5764 5765 5766 5767 5769 5770 5772 5773 5774 5775 5777 5779 5780 5782 5783 5784 5786 5787 5788 5789 5790 5791 5792 5792 5793
5742 5742 5742 5743 5745 5746 5746 5746 5746 5746 5746 5747 5748 5750 5751 5751 5752 5754 5755 5757 5758 5759 5761 5762 5763 5765 5766 5767 5768 5770 5771 5773 5774 5776 5777 5778 5780 5781 5782 5783 5784 5785 5786 5787
5734 5734 5733 5734 5736 5737 5738 5738 5738 5738 5739 5740 5741 5742 5743 5744 5746 5747 5748 5750 5751 5752 5754 5755 5756 5758 5759 5760 5761 5762 5763 5765 5766 5768 5769 5771 5772 5773 5775 5776 5777 5778 5779 5779
5725 5725 5726 5727 5728 5728 5729 5730 5730 5730 5731 5733 5734 5735 5736 5737 5739 5740 5741 5742 5744 5745 5747 5748 5749 5750 5751 5752 5753 5754 5755 5756 5758 5760 5761 5762 5764 5765 5767 5768 5769 5770 5771 5771
Wind_Speed
11 11 10 11 11 12 11 11 11 12 12 12 12 11 11 11 11 11 10 11 11 11 11 10 11 11 11 11 10 10 10 9 9 9 9 8 8 8 9 9 9 9 9 10
12 12 12 12 12 12 12 12 12 12 13 13 12 12 12 12 12 11 11 10 11 12 11 11 11 11 10 11 11 10 10 9 9 9 9 8 8 8 9 9 9 10 9 9
13 13 13 13 13 13 13 13 13 13 13 13 13 13 12 12 12 12 11 11 11 12 12 11 11 11 11 11 11 11 10 10 10 10 9 9 8 9 9 9 9 9 9 10
13 13 14 14 14 14 14 14 14 15 14 13 14 14 13 12 12 12 12 12 11 11 12 11 11 11 11 12 11 11 11 10 10 10 10 9 9 9 9 9 9 8 9 9
14 14 14 14 14 14 15 15 16 16 16 15 14 14 13 13 12 12 12 12 12 12 11 12 11 11 11 11 11 11 11 10 10 10 10 11 10 10 9 9 8 8 8 9
15 16 16 15 15 15 15 16 16 16 17 16 15 15 14 14 13 13 14 14 13 13 12 12 12 12 12 12 12 11 11 11 10 10 10 10 10 10 9 8 8 8 8 9
16 16 16 16 16 16 16 16 16 17 17 16 16 16 15 15 14 14 14 14 14 14 14 13 12 12 12 12 12 12 12 11 11 11 10 10 10 10 9 9 8 8 8 9
17 17 17 17 17 17 16 16 16 17 16 16 16 17 16 16 15 14 14 14 14 15 15 14 14 13 12 12 12 12 11 11 11 11 11 11 11 10 10 9 9 9 9 9
17 17 17 18 18 18 17 17 17 18 18 17 17 16 16 16 16 15 14 14 14 15 15 15 14 13 13 12 12 12 12 12 12 12 12 12 11 11 10 10 10 10 10 9
17 18 18 18 18 18 18 17 18 18 18 18 16 16 15 16 16 15 15 14 14 14 14 15 15 14 14 13 13 12 13 13 13 12 12 12 12 11 11 11 11 11 11 11
17 17 17 17 18 18 18 18 18 19 19 19 17 15 15 16 15 15 15 15 15 14 14 15 15 15 15 14 14 14 13 13 13 13 12 12 12 12 11 11 11 11 11 12
17 18 18 17 17 17 18 18 18 19 19 19 18 16 16 16 15 15 15 15 15 15 15 15 16 16 15 15 14 14 13 13 13 13 13 12 12 12 11 11 12 12 12 12
18 18 18 18 17 17 18 18 19 20 20 20 19 17 16 16 16 17 16 16 16 16 16 16 16 16 16 16 15 14 14 14 14 13 13 13 13 13 12 12 13 13 13 12
19 19 18 18 18 19 18 18 19 20 21 21 20 18 17 17 17 17 17 17 18 18 18 18 17 17 17 17 17 16 16 16 16 15 15 15 15 14 13 13 13 13 13 13
20 19 19 18 18 18 19 19 19 20 21 21 20 20 19 18 18 17 18 18 18 19 18 18 18 18 18 18 18 17 17 17 17 17 16 16 16 15 15 14 14 14 14 14
20 20 19 19 19 20 20 20 20 21 22 23 22 21 21 21 20 19 19 19 20 21 20 19 19 19 19 20 19 18 18 17 17 16 17 17 17 17 16 15 15 15 15 14
21 21 22 21 21 22 22 20 21 21 22 23 23 22 22 22 21 21 21 21 21 21 21 21 20 20 21 21 20 20 19 19 18 17 17 18 18 18 18 17 16 16 16 15
23 23 23 23 23 24 22 20 22 22 22 23 23 23 22 21 21 21 21 21 21 21 21 21 20 21 21 22 21 21 20 20 19 19 18 18 18 18 18 17 17 17 16 16
24 23 23 24 24 24 22 21 22 22 22 23 24 23 23 22 22 21 21 21 20 21 22 21 21 21 21 22 22 22 21 21 20 20 20 20 19 19 19 18 18 18 17 17
24 24 24 24 24 23 21 21 22 23 22 22 24 23 23 23 22 21 21 21 21 22 21 21 21 21 21 22 22 22 22 22 21 21 21 21 20 20 20 19 19 18 18 18
25 25 25 25 25 23 22 22 23 23 21 22 23 23 23 24 22 21 22 22 22 23 22 22 22 22 22 22 23 23 22 22 22 22 22 22 22 21 20 20 20 19 19 19
27 26 27 27 26 23 23 23 24 24 23 23 24 24 23 23 23 22 23 23 22 23 23 23 23 23 23 23 24 23 23 23 23 23 23 23 23 22 22 21 21 21 21 20
28 27 27 28 27 26 25 25 25 25 25 25 24 24 23 23 23 24 24 24 24 23 24 24 24 24 24 24 24 24 24 24 24 24 24 24 24 23 22 22 23 22 22 22
30 29 29 28 28 28 27 27 27 27 27 26 25 24 24 24 24 25 25 25 24 24 24 25 25 25 25 25 25 25 26 26 26 25 26 26 25 24 24 24 23 23 23 23
29 29 29 29 28 29 29 29 28 27 26 25 25 25 24 24 24 24 24 25 25 25 25 25 25 26 26 26 26 27 27 27 27 26 26 27 27 27 26 26 25 25 25 25
30 30 31 30 30 31 30 30 30 29 27 26 26 25 25 26 25 25 25 25 25 25 26 26 26 26 27 27 27 28 28 28 28 28 27 27 28 28 28 28 27 27 26 26
Wind_Direction
252 252 254 255 255 256 259 261 262 263 261 259 257 257 257 260 260 258 258 260 259 260 257 257 255 256 257 256 257 261 263 263 265 266 270 273 271 271 268 266 269 271 272 274
252 253 254 256 257 258 260 262 262 261 262 261 259 259 259 260 262 260 260 261 259 259 257 255 254 256 256 255 255 259 261 261 262 264 268 271 273 274 274 269 269 270 272 271
258 256 256 258 258 259 260 263 263 263 261 262 262 259 259 260 262 263 262 262 262 260 257 255 256 256 256 256 257 258 259 260 258 260 263 265 272 275 274 272 273 273 274 272
256 256 255 256 258 260 263 266 265 265 264 263 263 262 258 258 259 261 260 259 260 261 259 255 255 256 258 257 258 258 260 259 258 258 261 263 266 270 273 273 274 274 274 271
255 256 255 256 259 260 261 263 265 266 265 263 262 263 260 260 261 261 259 259 259 259 257 255 255 257 259 257 255 257 261 259 257 259 261 263 264 267 272 273 273 271 270 270
256 257 257 258 258 259 262 264 264 264 264 264 263 264 263 263 262 260 258 258 258 257 256 256 257 258 259 256 253 256 260 259 258 257 258 261 264 267 271 272 276 277 278 270
256 257 257 258 259 259 261 264 264 263 262 263 264 265 267 266 263 261 259 257 255 254 254 253 253 254 255 253 252 255 256 257 258 256 256 258 263 267 270 273 276 279 282 276
257 255 256 258 259 260 261 263 263 263 264 266 266 267 268 267 265 263 259 258 260 257 255 254 252 250 250 252 252 255 253 254 255 255 256 256 260 265 268 271 273 278 281 281
258 257 258 259 261 261 261 260 262 263 264 266 266 268 268 268 268 264 261 261 262 260 256 255 253 250 248 249 252 252 253 255 256 256 256 253 257 261 264 267 271 274 275 276
259 258 260 261 261 261 260 260 260 261 264 265 265 266 265 266 267 264 261 259 261 260 257 256 254 251 248 248 251 252 252 254 256 256 254 254 254 255 258 263 268 271 272 273
260 259 260 261 262 262 260 259 259 260 262 264 266 266 266 266 266 266 265 261 258 257 255 255 254 252 251 249 249 252 254 254 254 253 251 252 254 253 255 259 264 269 273 276
260 259 259 260 263 263 260 259 258 259 262 264 266 266 265 265 265 263 262 259 256 253 253 254 254 255 253 251 250 251 253 253 252 252 253 252 254 256 256 257 262 267 272 276
259 260 261 259 260 261 261 260 258 258 259 261 263 264 265 265 264 263 261 259 256 254 254 255 256 256 255 252 251 252 253 253 252 252 255 254 255 255 257 260 262 265 269 272
260 260 261 263 262 261 261 261 260 260 261 261 262 263 260 263 264 262 260 259 258 257 257 256 256 256 255 253 250 250 251 251 251 251 253 254 255 254 256 260 262 265 269 271
262 261 262 262 262 261 260 260 261 261 262 263 263 262 261 262 265 262 260 258 257 256 256 255 254 252 252 252 249 250 251 252 252 252 252 253 253 253 255 259 261 264 268 268
261 263 262 262 263 262 261 261 260 262 261 261 261 261 263 264 263 263 260 257 256 257 257 255 254 252 251 250 251 251 252 253 254 254 254 254 253 254 257 260 262 265 268 267
260 262 264 264 264 265 263 263 262 263 263 261 260 262 263 262 263 262 259 257 256 257 257 256 255 253 251 250 251 252 251 251 252 254 254 253 254 256 258 260 263 265 265 267
259 261 264 265 265 265 267 264 264 264 263 261 262 261 262 261 259 258 257 257 257 257 258 257 257 255 254 253 253 253 252 251 251 253 254 255 256 258 259 261 262 263 264 265
259 261 264 266 268 268 266 267 267 266 264 262 261 260 261 259 258 258 258 258 258 258 256 255 255 254 254 253 252 252 252 251 251 253 254 254 256 257 259 259 258 260 262 263
258 259 263 267 269 270 270 271 268 267 265 262 260 259 260 258 258 258 258 257 257 257 255 253 252 252 252 252 252 251 252 252 252 254 255 254 255 257 258 257 256 258 260 262
259 258 261 265 268 269 270 269 268 266 266 262 261 259 258 259 260 257 256 255 257 257 255 254 253 253 251 253 253 251 252 252 252 254 256 254 255 256 256 257 256 258 260 262
260 263 261 262 264 266 267 269 268 267 266 263 261 260 259 259 257 256 255 255 256 256 255 255 254 253 252 253 252 251 253 253 253 254 256 256 257 257 257 256 255 258 260 262
260 263 263 261 262 265 267 267 267 266 265 264 262 260 259 259 257 256 255 256 257 257 256 255 254 252 253 254 252 251 253 254 254 255 256 257 257 258 258 257 256 258 260 262
260 262 262 262 262 264 266 266 265 265 263 262 260 258 258 258 257 255 254 256 257 258 257 256 255 255 256 256 254 253 254 255 255 256 258 257 255 256 258 259 258 258 260 262
261 264 263 263 264 262 262 264 264 264 262 259 257 257 257 258 257 255 255 255 256 256 257 258 258 256 256 256 256 256 256 256 257 257 258 256 255 256 258 258 258 258 259 261
261 264 265 263 264 264 263 264 263 262 260 259 257 256 256 256 255 255 256 256 255 255 256 257 258 258 258 258 257 257 257 257 257 258 258 257 257 256 257 258 258 258 259 261